DW2871 Weather Reports


time (UTC)temp
C
wind
direction
speed
KPH
gust
KPH
rain 1hr
cm
rain 24hr
cm
rain mn
cm
humidity
%
barometer
mb
20260506044531 -17 332 0.0 0.0 0.00 0.00 0.00 1013.2
20260506043026 -17 329 0.0 0.0 0.00 0.00 0.00 1013.3
20260506041519 -17 338 0.0 0.0 0.00 0.00 0.00 1013.7
20260506040021 -17 321 0.0 0.0 0.00 0.00 0.00 1014.1
20260506034518 -17 360 0.0 0.0 0.00 0.00 0.00 1014.1
20260506033006 -17 273 0.0 0.0 0.00 0.00 0.00 1014.4
20260506031532 -17 304 0.0 0.0 0.00 0.00 0.00 1014.7
20260506030037 -17 300 0.0 0.0 0.00 0.00 0.00 1014.9
20260506024545 -17 296 0.0 0.0 0.00 0.00 0.00 1015.3
20260506023016 -17 303 0.0 0.0 0.00 0.00 0.00 1015.7
20260506021511 -17 304 0.0 0.0 0.00 0.00 0.00 1016.0
20260506020007 -17 319 0.0 0.0 0.00 0.00 0.00 1016.3
20260506014600 -17 329 0.0 0.0 0.00 0.00 0.00 1016.5
20260506013107 -17 297 0.0 0.0 0.00 0.00 0.00 1016.8
20260506011604 -17 343 0.0 0.0 0.00 0.00 0.00 1017.0
20260506010047 -17 327 0.0 0.0 0.00 0.00 0.00 1017.2
20260506004512 -17 300 0.0 0.0 0.00 0.00 0.00 1017.4
20260506003008 -17 292 0.0 0.0 0.00 0.00 0.00 1017.5
20260506001601 -17 269 0.0 0.0 0.00 0.00 0.00 1017.7
20260506000101 -17 257 0.0 0.0 0.00 0.00 0.00 1017.7
20260505234552 -17 292 0.0 0.0 0.00 0.00 0.00 1017.9
20260505233048 -17 303 0.0 0.0 0.00 0.00 0.00 1018.0
20260505231542 -17 264 0.0 0.0 0.00 0.00 0.00 1018.2
20260505230050 -17 299 0.0 0.0 0.00 0.00 0.00 1018.3
20260505224532 -17 272 0.0 0.0 0.00 0.00 0.00 1018.3
20260505223029 -17 319 0.0 0.0 0.00 0.00 0.00 1018.3
20260505221521 -17 360 0.0 0.0 0.00 0.00 0.00 1018.4
20260505220015 -17 250 0.0 0.0 0.00 0.00 0.00 1018.3
20260505214512 -17 292 0.0 0.0 0.00 0.00 0.00 1018.3
20260505213008 -17 283 0.0 0.0 0.00 0.00 0.00 1018.2
20260505211600 -17 288 0.0 0.0 0.00 0.00 0.00 1018.3
20260505210055 -17 325 0.0 0.0 0.00 0.00 0.00 1018.3
20260505204556 -17 297 0.0 0.0 0.00 0.00 0.00 1018.4
20260505203054 -17 360 0.0 0.0 0.00 0.00 0.00 1018.4
20260505201511 -17 281 0.0 0.0 0.00 0.00 0.00 1018.5
20260505200018 -17 286 0.0 0.0 0.00 0.00 0.00 1018.6
20260505194614 -17 305 0.0 0.0 0.00 0.00 0.00 1018.6
20260505193056 -17 289 0.0 0.0 0.00 0.00 0.00 1018.5
20260505191552 -17 294 0.0 0.0 0.00 0.00 0.00 1018.5
20260505190047 -17 296 0.0 0.0 0.00 0.00 0.00 1018.6
20260505184543 -17 315 0.0 0.0 0.00 0.00 0.00 1018.6
20260505183033 -17 360 0.0 0.0 0.00 0.00 0.00 1018.7
20260505181529 -17 284 0.0 0.0 0.00 0.00 0.00 1018.7
20260505180024 -17 283 0.0 0.0 0.00 0.00 0.00 1018.7
20260505174521 -17 292 0.0 0.0 0.00 0.00 0.00 1018.8
20260505173033 -17 291 0.0 0.0 0.00 0.00 0.00 1018.8
20260505171509 -17 258 0.0 0.0 0.00 0.00 0.00 1019.1
20260505170004 -17 293 0.0 0.0 0.00 0.00 0.00 1019.3
20260505164605 -17 290 0.0 0.0 0.00 0.00 0.00 1019.4
20260505163059 -17 289 0.0 0.0 0.00 0.00 0.00 1019.4
20260505161549 -17 297 0.0 0.0 0.00 0.00 0.00 1019.4
20260505153047 -17 286 0.0 0.0 0.00 0.00 0.00 1019.9
20260505151527 -17 290 0.0 0.0 0.00 0.00 0.00 1020.0
20260505124508 -17 275 0.0 0.0 0.00 0.00 0.00 1020.6
20260505123003 -17 278 0.0 0.0 0.00 0.00 0.00 1020.7
20260505121600 -17 277 0.0 0.0 0.00 0.00 0.00 1020.7
20260505120051 -17 279 0.0 0.0 0.00 0.00 0.00 1020.7
20260505114548 -17 278 0.0 0.0 0.00 0.00 0.00 1020.8
20260505113043 -17 271 0.0 0.0 0.00 0.00 0.00 1020.8
20260505111550 -17 271 0.0 0.0 0.00 0.00 0.00 1020.8
20260505101518 -17 269 0.0 0.0 0.00 0.00 0.00 1020.7
20260505100011 -17 270 0.0 0.0 0.00 0.00 0.00 1020.9
20260505094506 -17 269 0.0 0.0 0.00 0.00 0.00 1021.0
20260505093002 -17 270 0.0 0.0 0.00 0.00 0.00 1020.9
20260505091602 -17 269 0.0 0.0 0.00 0.00 0.00 1020.9
20260505090057 -17 269 0.0 0.0 0.00 0.00 0.00 1020.7
20260505084548 -17 269 0.0 0.0 0.00 0.00 0.00 1020.6
20260505083047 -17 269 0.0 0.0 0.00 0.00 0.00 1020.5
20260505081552 -17 269 0.0 0.0 0.00 0.00 0.00 1020.4
20260505080002 -17 269 0.0 0.0 0.00 0.00 0.00 1020.3
20260505074611 -17 269 0.0 0.0 0.00 0.00 0.00 1020.0
20260505073055 -17 270 0.0 0.0 0.00 0.00 0.00 1019.9
20260505071526 -17 269 0.0 0.0 0.00 0.00 0.00 1019.7
20260505070015 -17 269 0.0 0.0 0.00 0.00 0.00 1019.6
20260505064508 -17 269 0.0 0.0 0.00 0.00 0.00 1019.5
20260505063002 -17 269 0.0 0.0 0.00 0.00 0.00 1019.5
20260505061625 -17 269 0.0 0.0 0.00 0.00 0.00 1019.5
20260505060055 -17 269 0.0 0.0 0.00 0.00 0.00 1019.4
20260505054559 -17 269 0.0 0.0 0.00 0.00 0.00 1019.3
20260505053044 -17 269 0.0 0.0 0.00 0.00 0.00 1019.2
20260505051538 -17 269 0.0 0.0 0.00 0.00 0.00 1019.3